KB1MIM Weather Reports


Display with metric or nautical units.
time (UTC)temp
F
wind
direction
speed
MPH
gust
MPH
rain 1hr
in
rain 24hr
in
rain mn
in
humidity
%
barometer
mb
20220523180027 70 4 0.0 2.0 0.00 0.00 0.00 44 1021.2
20220523174527 70 248 1.0 5.0 0.00 0.00 0.00 43 1021.4
20220523173025 70 358 1.0 5.0 0.00 0.00 0.00 42 1021.5
20220523171530 70 232 1.0 5.0 0.00 0.00 0.00 44 1021.5
20220523170024 71 49 0.0 4.0 0.00 0.00 0.00 46 1021.8
20220523164524 70 242 0.0 2.0 0.00 0.00 0.00 49 1021.7
20220523163030 69 37 1.0 3.0 0.00 0.00 0.00 53 1021.8
20220523161523 68 64 0.0 5.0 0.00 0.00 0.00 52 1021.8
20220523160015 68 1 0.0 3.0 0.00 0.00 0.00 53 1022.1
20220523154550 68 53 0.0 5.0 0.00 0.00 0.00 53 1022.4
20220523153024 67 25 0.0 3.0 0.00 0.00 0.00 54 1022.4
20220523151510 66 53 0.0 3.0 0.00 0.00 0.00 57 1022.4
20220523150018 66 278 0.0 3.0 0.00 0.00 0.00 56 1022.4
20220523144507 64 263 0.0 2.0 0.00 0.00 0.00 59 1022.3
20220523143005 64 15 0.0 2.0 0.00 0.00 0.00 60 1022.4
20220523141514 63 1 0.0 3.0 0.00 0.00 0.00 59 1022.5
20220523140005 63 41 0.0 2.0 0.00 0.00 0.00 59 1022.3
20220523134504 62 34 0.0 2.0 0.00 0.00 0.00 63 1022.3
20220523133100 60 28 0.0 2.0 0.00 0.00 0.00 65 1022.4
20220523131601 59 345 0.0 1.0 0.00 0.00 0.00 67 1022.2
20220523130108 58 61 0.0 1.0 0.00 0.00 0.00 67 1022.3
20220523124557 58 50 1.0 3.0 0.00 0.00 0.00 66 1022.1
20220523123103 58 32 1.0 4.0 0.00 0.00 0.00 66 1022.0
20220523121551 57 67 0.0 4.0 0.00 0.00 0.00 68 1021.7
20220523120056 57 334 0.0 5.0 0.00 0.00 0.00 71 1021.4
20220523114549 57 23 1.0 7.0 0.00 0.00 0.00 70 1021.4
20220523113048 57 319 0.0 2.0 0.00 0.00 0.00 77 1021.3
20220523111548 57 71 0.0 1.0 0.00 0.00 0.00 81 1021.1
20220523110042 56 254 0.0 1.0 0.00 0.00 0.00 82 1020.9
20220523104545 55 45 0.0 1.0 0.00 0.00 0.00 83 1020.6
20220523103046 55 52 0.0 1.0 0.00 0.00 0.00 82 1020.4
20220523101542 55 248 0.0 3.0 0.00 0.00 0.00 81 1019.8
20220523100030 56 44 0.0 2.0 0.00 0.00 0.00 79 1019.6
20220523094544 56 183 0.0 3.0 0.00 0.00 0.00 79 1019.3
20220523093027 57 242 0.0 2.0 0.00 0.00 0.00 78 1019.0
20220523091522 58 256 0.0 2.0 0.00 0.00 0.00 77 1018.9
20220523090018 58 264 0.0 3.0 0.00 0.00 0.00 76 1018.7
20220523084516 59 53 0.0 3.0 0.00 0.00 0.00 75 1018.6
20220523083011 60 256 0.0 3.0 0.00 0.00 0.00 76 1018.2
20220523081508 61 34 0.0 4.0 0.00 0.00 0.00 78 1018.1
20220523080006 61 51 0.0 3.0 0.00 0.00 0.00 80 1017.8
20220523074509 61 273 0.0 1.0 0.00 0.00 0.00 81 1017.6
20220523073002 62 253 1.0 5.0 0.00 0.00 0.00 81 1017.4
20220523071501 62 85 0.0 3.0 0.00 0.00 0.00 82 1017.2
20220523070059 62 25 0.0 3.0 0.00 0.00 0.00 84 1017.3
20220523064609 62 46 0.0 6.0 0.00 0.00 0.00 86 1017.1
20220523063059 62 58 0.0 3.0 0.00 0.00 0.00 86 1017.0
20220523061552 63 41 1.0 6.0 0.00 0.00 0.00 86 1016.7
20220523060109 64 307 0.0 4.0 0.00 0.00 0.00 87 1016.5
20220523054547 64 105 2.0 5.0 0.00 0.00 0.00 88 1016.5
20220523053044 64 278 0.0 1.0 0.00 0.00 0.00 91 1016.4
20220523051542 65 245 0.0 1.0 0.00 0.00 0.00 90 1016.2
20220523050040 65 273 0.0 3.0 0.00 0.00 0.00 92 1016.0
20220523044538 65 49 0.0 2.0 0.00 0.00 0.00 94 1015.7
20220523043033 65 115 0.0 1.0 0.00 0.00 0.00 97 1015.3
20220523041539 66 115 0.0 0.0 0.00 0.00 0.00 97 1015.4
20220523040039 66 115 0.0 0.0 0.00 0.00 0.00 97 1015.3
20220523034534 66 115 0.0 0.0 0.00 0.00 0.00 97 1015.1
20220523033031 67 115 0.0 0.0 0.00 0.00 0.00 97 1014.9
20220523031546 67 115 0.0 0.0 0.00 0.00 0.00 96 1015.1
20220523030026 67 115 0.0 0.0 0.00 0.00 0.00 96 1015.1
20220523024525 68 116 0.0 0.0 0.00 0.00 0.00 96 1015.1
20220523023023 68 115 0.0 0.0 0.00 0.00 0.00 96 1015.0
20220523021525 68 115 0.0 0.0 0.00 0.00 0.00 96 1015.2
20220523020023 69 48 0.0 0.0 0.00 0.00 0.00 96 1015.4
20220523014522 69 48 0.0 0.0 0.00 0.00 0.00 96 1015.6
20220523013021 69 49 0.0 0.0 0.00 0.00 0.00 96 1015.6
20220523011520 69 49 0.0 0.0 0.00 0.00 0.00 95 1015.2
20220523010021 69 48 0.0 0.0 0.00 0.00 0.00 95 1014.5
20220523004541 69 278 0.0 0.0 0.00 0.00 0.00 94 1014.4
20220523003017 0 0.0 0.0 0.00 0.00 0.00
20220522231601 86 37 0.0 2.0 0.00 0.00 0.00 50 1010.8
20220522230050 86 96 0.0 2.0 0.00 0.00 0.00 48 1010.3
20220522224553 88 164 0.0 2.0 0.00 0.00 0.00 46 1009.9
20220522223049 89 96 0.0 2.0 0.00 0.00 0.00 45 1009.9
20220522221602 90 82 0.0 3.0 0.00 0.00 0.00 42 1009.9
20220522220047 91 56 0.0 2.0 0.00 0.00 0.00 41 1009.8
20220522214546 92 84 1.0 3.0 0.00 0.00 0.00 39 1009.8
20220522213045 93 86 0.0 3.0 0.00 0.00 0.00 39 1009.7
20220522211553 93 88 0.0 2.0 0.00 0.00 0.00 38 1009.8
20220522210042 94 115 0.0 2.0 0.00 0.00 0.00 38 1009.7
20220522204538 92 108 0.0 2.0 0.00 0.00 0.00 40 1010.0
20220522203044 92 101 0.0 4.0 0.00 0.00 0.00 40 1010.0
20220522201533 91 193 0.0 3.0 0.00 0.00 0.00 45 1010.3
20220522200033 91 207 0.0 2.0 0.00 0.00 0.00 45 1010.5
20220522194533 91 122 1.0 4.0 0.00 0.00 0.00 45 1010.8
20220522193031 91 152 0.0 6.0 0.00 0.00 0.00 45 1010.8
20220522191525 91 49 0.0 3.0 0.00 0.00 0.00 47 1011.0
20220522190025 91 48 0.0 1.0 0.00 0.00 0.00 47 1011.3
20220522184528 90 67 0.0 3.0 0.00 0.00 0.00 50 1011.5
20220522183032 90 236 0.0 1.0 0.00 0.00 0.00 48 1011.6
20220522181522 91 89 0.0 2.0 0.00 0.00 0.00 47 1012.0